Location: Geroldsau
(48.7259°N, 8.2466°E)
Time: 00:42:07
(UTC+00:00)

NOSS 2-2 (D) - Visible Passes

Search period start: 24 October 2021 00:00
Search period end: 03 November 2021 00:00
Orbit: 449 x 1757 km, 63.3° (Epoch: 22 October)

Date Brightness Start Highest point End Pass type
(mag) Time Alt. Az. Time Alt. Az. Time Alt. Az.
24 Oct 7.1 01:08:45 11° E 01:08:45 11° E 01:09:03 10° E visible
24 Oct 4.4 02:56:10 72° ESE 02:56:10 72° ESE 03:02:45 10° SE visible
24 Oct 5.6 04:43:35 18° W 04:46:10 24° WSW 04:51:56 10° SSW visible
25 Oct 5.9 02:12:42 31° ESE 02:12:42 31° ESE 02:16:37 10° ESE visible
25 Oct 4.9 04:00:08 36° WSW 04:00:37 37° WSW 04:07:21 10° S visible
26 Oct 7.0 01:29:20 13° ESE 01:29:20 13° ESE 01:30:09 10° ESE visible
26 Oct 5.1 03:16:46 43° S 03:16:46 43° S 03:22:13 10° SSE visible
26 Oct 6.3 05:04:12 11° WSW 05:05:17 11° WSW 05:07:27 10° SW visible
27 Oct 6.1 02:33:29 26° SE 02:33:29 26° SE 02:36:38 10° SE visible
27 Oct 6.0 04:20:56 19° SW 04:20:56 19° SW 04:24:48 10° SSW visible
27 Oct 4.5 18:13:47 10° SSW 18:15:24 24° S 18:15:24 24° S visible
28 Oct 7.1 01:50:17 11° SE 01:50:17 11° SE 01:50:39 10° SE visible
28 Oct 6.2 03:37:44 20° SSW 03:37:44 20° SSW 03:40:39 10° S visible
28 Oct 4.4 17:29:03 10° SSE 17:31:37 20° ESE 17:31:42 20° ESE visible
28 Oct 6.0 19:18:39 10° WSW 19:19:06 13° WSW 19:19:06 13° WSW visible
29 Oct 6.8 02:54:35 14° S 02:54:35 14° S 02:55:46 10° SSE visible
29 Oct 3.9 18:32:48 10° SW 18:35:21 47° WSW 18:35:21 47° WSW visible
30 Oct 2.9 17:47:17 10° SSW 17:50:37 60° SE 17:51:30 43° ENE visible
31 Oct 3.9 17:02:13 10° S 17:05:12 29° ESE 17:07:35 14° ENE visible
31 Oct 5.1 18:52:38 10° W 18:54:58 26° WNW 18:54:58 26° WNW visible
01 Nov 3.8 18:06:37 10° WSW 18:09:54 48° NW 18:11:00 34° N visible
02 Nov 2.9 17:20:54 10° SW 17:24:17 87° SE 17:26:58 17° NE visible
02 Nov 6.0 19:13:05 10° WNW 19:14:21 15° NW 19:14:21 15° NW visible
